Regional Weather Roundup
Issued by NWS Boston, MA

Current Version | Previous Version | Text Only | Print | Product List | Glossary On
Versions: 1 2 3 4 5 6 7 8 9 10 11 12 13 14 15 16 17 18 19 20 21 22 23 24 25 26 27 28 29 30 31 32 33 34 35 36 37 38 39 40 41 42 43 44 45 46 47 48 49 50
000
ASUS41 KBOX 190100
RWRBOX

REGIONAL WEATHER ROUNDUP
NATIONAL WEATHER SERVICE BOSTON/NORTON MA
900 PM EDT TUE JUN 18 2019

NOTE:  "FAIR" INDICATES FEW OR NO CLOUDS BELOW 12,000 FEET WITH NO
SIGNIFICANT WEATHER AND/OR OBSTRUCTIONS TO VISIBILITY.

MAZALL-190200-
EASTERN MASSACHUSETTS

CITY           SKY/WX    TMP DP  RH WIND       PRES   REMARKS
BOSTON         CLOUDY    64  60  87 CALM      29.90F
BEVERLY        CLOUDY    63  61  93 E3        29.90S FOG
LAWRENCE       CLOUDY    65  62  90 E5        29.92S
BEDFORD        CLOUDY    68  65  90 NE3       29.89S FOG
BLUE HILL        N/A     64  64 100 SE6       29.90F
NORWOOD        CLOUDY    69  64  84 SE3       29.90S
MARSHFIELD     NOT AVBL
PLYMOUTH       LGT RAIN  65  63  93 E3        29.91S
TAUNTON        CLOUDY    67  64  90 CALM      29.89F
NEW BEDFORD    RAIN      64  62  93 NE6       29.89F FOG
$$

MAZALL-190200-
CAPE COD AND THE ISLANDS

CITY           SKY/WX    TMP DP  RH WIND       PRES   REMARKS
FALMOUTH       FOG       63  63 100 NE6       29.91S VSB 1
HYANNIS        NOT AVBL
CHATHAM        LGT RAIN  59  58  96 E6        29.93R FOG
PROVINCETOWN   CLOUDY    62  61  96 SE8       29.92F
NANTUCKET      FOG       59  57  93 E6        29.90S VSB 3/4
MARTHAS VNYRD  FOG       62  61  96 E6        29.89S VSB 1/2
$$

MAZALL-190200-
CENTRAL AND WESTERN MASSACHUSETTS

CITY           SKY/WX    TMP DP  RH WIND       PRES   REMARKS
WORCESTER      FOG       62  62 100 N3        29.92S VSB 1/4
FITCHBURG      CLOUDY    66  62  87 CALM      29.91F
ORANGE         CLOUDY    67  64  90 CALM      29.91S
SPRINGFIELD    CLOUDY    65  64  95 CALM      29.88S
WESTFIELD      CLOUDY    64  61  90 CALM      29.89S
NORTH ADAMS    MOCLDY    66  63  90 E5        29.90R
PITTSFIELD     FAIR      64  61  90 CALM      29.90R
$$

RIZALL-190200-
RHODE ISLAND

CITY           SKY/WX    TMP DP  RH WIND       PRES   REMARKS
PROVIDENCE     LGT RAIN  65  64  97 NE5       29.90S FOG
NEWPORT        CLOUDY    64  63  96 NE7       29.88F
BLOCK ISLAND   LGT RAIN  61  61 100 E6        29.88S FOG
SMITHFIELD     CLOUDY    64  63  96 CALM      29.91F FOG
WESTERLY       RAIN      65  65 100 N6        29.89R FOG
$$

CTZALL-190200-
CONNECTICUT

CITY           SKY/WX    TMP DP  RH WIND       PRES   REMARKS
BRADLEY INTL   CLOUDY    66  62  87 CALM      29.89S
HARTFORD       LGT RAIN  65  64  97 N3        29.88S
BRIDGEPORT     CLOUDY    65  64  97 E6        29.87S
DANBURY        CLOUDY    65  63  93 NE5       29.90R
GROTON         NOT AVBL
NEW HAVEN      LGT RAIN  69  65  86 N5        29.88R FOG
CHESTER        NOT AVBL
MERIDEN        LGT RAIN  66  64  93 NW5       29.88F
WILLIMANTIC    LGT RAIN  66  64  93 CALM      29.89S FOG
OXFORD         CLOUDY    64  63  96 E5        29.90S
$$

MEZ002-015-021-024-NHZ003-005-008-011-012-014-VTZ005-008-190200-
NORTHERN NEW ENGLAND

CITY           SKY/WX    TMP DP  RH WIND       PRES   REMARKS
PORTLAND ME    CLOUDY    59  57  93 SE5       29.91F FOG
BANGOR ME      FAIR      64  49  57 S5        29.90S
CONCORD NH     FAIR      65  59  81 VRB5      29.90S
MANCHESTER NH  MOCLDY    67  62  84 SE5       29.88F
NASHUA NH      MOCLDY    65  65 100 VRB3      29.90F
PORTSMOUTH NH  CLOUDY    60  57  91 SE5       29.90  FOG
JAFFREY NH     FAIR      63  61  93 CALM      29.92S
KEENE NH       FAIR      63  61  93 CALM      29.90S
BURLINGTON VT  FAIR      73  51  46 CALM      29.86R
MT. WASHINGTON PTCLDY    45  45 100 W12         N/A
$$

NYZ052-076-190200-
EASTERN NEW YORK

CITY           SKY/WX    TMP DP  RH WIND       PRES   REMARKS
ALBANY         MOCLDY    70  63  78 CALM      29.88R
NEW YORK CITY  LGT RAIN  66  64  93 NE14      29.86S VSB 3/4
$$

ANZALL-190200-
MARINE OBSERVATIONS

STATION/POSITION TIME  TEMP    WIND        PRES    VSBY  WAVE
                       AIR SEA DIR/SP/G                  HT/PER
                 (UTC) (F)     (DEG/KT/KT) (MB)    (MI)  (FT/S)
BOSTON BUOY      2350   60 58  120/  8/  8 1012.3          1/13
BUZZARDS BAY     NOT AVBL
NANTUCKET SOUND  0040   59 64   80/  6/  8   N/A
MASS BAY-STELLWA 0004   59 56  150/  6/  8 1012.9F   1/2   1/ 8
ISLE OF SHOALS   0000   61     150/  7/  7 1012.4F
S OF BLOCK IS    0030      59                N/A           2/ 6
$$

......................KEY.........................
  SKY/WX - SKY CONDITION/PRESENT WEATHER
  TMP    - TEMPERATURE IN FAHRENHEIT
  DWPT   - DEWPOINT IN FAHRENHEIT
  RH     - RELATIVE HUMIDITY IN PERCENT
  WIND   - DIRECTION AND SPEED IN MPH
  PRES   - MEAN SEA LEVEL PRESSURE IN INCHES OF HG
  WCI    - WIND CHILL INDEX
  VSB    - VISIBILITY IN MILES
  HX     - HEAT INDEX
  TC     - TEMPERATURE IN CELSIUS
  VRB    - VARIABLE WIND DIRECTION
  N/A    - NOT AVAILABLE



USA.gov is the U.S. government's official web portal to all federal, state and local government web resources and services.